User: anonymous   Login
Location: Irma
(52.9170°N, 111.2330°W)
Time: 05:08:32
(UTC-06:00)
Language:

deb Chang Zheng 4 - Orbit

View from above orbital plane
View from above orbital plane
View from above satellite
View from above satellite

Ground track
Ground track

The orbit data is extracted from the following two-line orbital elements,

1 20847U 90081K   14304.47266278  .00015642  00000-0  26931-2 0  2256
2 20847 098.5775 114.5938 0021680 233.0555 183.3853 14.68497800264184
Epoch (UTC): 31 October 2014 11:20:38
Eccentricity: 0.0021680
inclination: 98.5775°
perigee height: 650 km
apogee height: 681 km
right ascension of ascending node: 114.5938°
argument of perigee: 233.0555°
revolutions per day: 14.68497800
mean anomaly at epoch: 183.3853°
orbit number at epoch: 26418

The dashed part of the orbit path shows where the satellite is in the earth's shadow,  

DLR